Weather History for Nouasseur, Morocco

Change the Weather History Date:

Saturday, November 24, 2012

  Actual Average Record
Temperature  
Mean Temperature 61 °F -  
Max Temperature 76 °F 64 °F 76 °F (2012)
Min Temperature 46 °F 46 °F 41 °F (1999)
Degree Days  
Heating Degree Days 4    
Growing Degree Days 11 (Base 50)    
Moisture  
Dew Point 52 °F    
Average Humidity 66    
Maximum Humidity 82    
Minimum Humidity 28    
Precipitation  
Precipitation 0.00 in - - ()
Sea Level Pressure  
Sea Level Pressure 30.08 in    
Wind  
Wind Speed 6 mph ()    
Max Wind Speed 12 mph    
Max Gust Speed -    
Visibility 6.2 miles    
Events      
Averages and records for this station are not official NWS values.
T = Trace of Precipitation, MM = Missing Value Source: Averaged Metar Reports

Daily Weather History Graph

Daily Weather History Graph

Search for Another Location

Airport:

Trip Planner

Search our weather history database for the weather conditions in past years. The results will help you decide how hot, cold, wet, or windy it might be!

Date:

Astronomy

Nov. 24, 2012 Rise Set
Actual Time 7:10 AM WET 5:23 PM WET
Civil Twilight 6:43 AM WET 5:50 PM WET
Nautical Twilight 6:12 AM WET 6:21 PM WET
Astronomical Twilight 5:43 AM WET 6:50 PM WET
Moon 2:53 PM WET (11/24) 3:23 AM WET (11/24)
Length of Visible Light 11h 07m
Length of Day
10h 13m
Waxing Gibbous, 85% of the Moon is Illuminated
Nov 24
Waxing Gibbous
Nov 28
Full
Dec 6
Last Quarter
Dec 13
New
Dec 20
First Quarter

Hourly Weather History & Observations

Time (WET) Temp. Dew Point Humidity Pressure Visibility Wind Dir Wind Speed Gust Speed Precip Events Conditions
12:00 AM 56 °F 50 °F 75% 30.10 in 6 mi South 4.6 mph - -   Scattered Clouds
12:00 AM 55.4 °F 50.0 °F 82% 30.09 in 6.2 mi South 4.6 mph - N/A   Partly Cloudy
12:30 AM 55.4 °F 50.0 °F 82% 30.06 in 6.2 mi SSE 5.8 mph - N/A   Partly Cloudy
1:00 AM 55.4 °F 50.0 °F 82% 30.06 in 6.2 mi SSE 9.2 mph - N/A   Partly Cloudy
1:30 AM 55.4 °F 50.0 °F 82% 30.06 in 6.2 mi South 9.2 mph - N/A   Partly Cloudy
2:00 AM 55.4 °F 50.0 °F 82% 30.06 in 6.2 mi South 8.1 mph - N/A   Partly Cloudy
2:30 AM 55.4 °F 50.0 °F 82% 30.06 in 6.2 mi SSE 9.2 mph - N/A   Partly Cloudy
3:00 AM 57 °F 50 °F 70% 30.07 in 6 mi SSE 11.5 mph - -   Scattered Clouds
3:00 AM 57.2 °F 50.0 °F 77% 30.06 in 6.2 mi SSE 11.5 mph - N/A   Partly Cloudy
3:30 AM 57.2 °F 50.0 °F 77% 30.06 in 6.2 mi South 8.1 mph - N/A   Partly Cloudy
4:00 AM 55.4 °F 50.0 °F 82% 30.06 in 6.2 mi SSW 3.5 mph - N/A   Partly Cloudy
4:30 AM 55.4 °F 48.2 °F 77% 30.06 in 6.2 mi SSW 3.5 mph - N/A   Partly Cloudy
5:00 AM 55.4 °F 50.0 °F 82% 30.06 in 6.2 mi South 9.2 mph - N/A   Partly Cloudy
5:30 AM 55.4 °F 50.0 °F 82% 30.06 in 6.2 mi SSE 6.9 mph - N/A   Partly Cloudy
6:00 AM 56 °F 50 °F 73% 30.09 in 6 mi South 5.8 mph - -   Scattered Clouds
6:00 AM 57.2 °F 50.0 °F 77% 30.06 in 6.2 mi South 5.8 mph - N/A   Partly Cloudy
6:30 AM 57.2 °F 50.0 °F 77% 30.06 in 6.2 mi South 8.1 mph - N/A   Unknown
7:00 AM 55.4 °F 50.0 °F 82% 30.06 in - SSE 4.6 mph - N/A   Clear
7:30 AM 55.4 °F 50.0 °F 82% 30.09 in - SSE 5.8 mph - N/A   Clear
8:00 AM 57.2 °F 50.0 °F 77% 30.09 in - South 8.1 mph - N/A   Clear
8:30 AM 59.0 °F 50.0 °F 72% 30.09 in 6.2 mi South 6.9 mph - N/A   Mostly Cloudy
9:00 AM 60 °F 51 °F 65% 30.11 in 6 mi South 8.1 mph - -   Scattered Clouds
9:00 AM 60.8 °F 51.8 °F 72% 30.09 in 6.2 mi South 8.1 mph - N/A   Mostly Cloudy
9:30 AM 62.6 °F 53.6 °F 72% 30.12 in 6.2 mi South 8.1 mph - N/A   Mostly Cloudy
10:00 AM 64.4 °F 51.8 °F 64% 30.12 in 6.2 mi South 9.2 mph - N/A   Mostly Cloudy
10:30 AM 66.2 °F 53.6 °F 64% 30.12 in 6.2 mi South 10.4 mph - N/A   Mostly Cloudy
11:00 AM 69.8 °F 53.6 °F 56% 30.12 in 6.2 mi South 9.2 mph - N/A   Mostly Cloudy
11:30 AM 71.6 °F 53.6 °F 53% 30.12 in 6.2 mi South 11.5 mph - N/A   Mostly Cloudy
12:00 PM 74 °F 52 °F 36% 30.09 in 6 mi South 10.4 mph - -   Scattered Clouds
12:00 PM 73.4 °F 51.8 °F 47% 30.09 in 6.2 mi South 10.4 mph - N/A   Mostly Cloudy
12:30 PM 75.2 °F 51.8 °F 44% 30.09 in 6.2 mi South 10.4 mph - N/A   Mostly Cloudy
1:00 PM 75.2 °F 53.6 °F 47% 30.09 in 6.2 mi SSW 9.2 mph - N/A   Mostly Cloudy
1:30 PM 75.2 °F 50.0 °F 41% 30.06 in 6.2 mi SSW 9.2 mph - N/A   Mostly Cloudy
2:00 PM 75.2 °F 53.6 °F 47% 30.06 in 6.2 mi SSW 8.1 mph - N/A   Mostly Cloudy
2:30 PM 77.0 °F 50.0 °F 39% 30.06 in - SW 11.5 mph - N/A   Clear
3:00 PM 76 °F 49 °F 28% 30.04 in 6 mi SSW 11.5 mph - -   Clear
3:00 PM 77.0 °F 50.0 °F 39% 30.06 in - SSW 11.5 mph - N/A   Clear
3:30 PM 73.4 °F 51.8 °F 47% 30.06 in - SSW 6.9 mph - N/A   Clear
4:00 PM 73.4 °F 53.6 °F 50% 30.06 in - SSW 4.6 mph - N/A   Clear
4:30 PM 73.4 °F 55.4 °F 53% 30.06 in - South 5.8 mph - N/A   Clear
5:00 PM 71.6 °F 55.4 °F 57% 30.06 in - South 5.8 mph - N/A   Clear
5:30 PM 69.8 °F 57.2 °F 64% 30.06 in - SSE 6.9 mph - N/A   Clear
6:00 PM 67 °F 54 °F 54% 30.07 in 6 mi South 6.9 mph - -   Clear
6:00 PM 68.0 °F 53.6 °F 60% 30.06 in - South 6.9 mph - N/A   Clear
6:30 PM 66.2 °F 53.6 °F 64% 30.06 in - South 4.6 mph - N/A   Clear
7:00 PM 66.2 °F 53.6 °F 64% 30.06 in - South 5.8 mph - N/A   Clear
7:30 PM 64.4 °F 53.6 °F 68% 30.09 in - West 2.3 mph - N/A   Clear
8:00 PM 64.4 °F 53.6 °F 68% 30.09 in - Calm Calm - N/A   Clear
8:30 PM 64.4 °F 53.6 °F 68% 30.09 in - Calm Calm - N/A   Clear
9:00 PM 63 °F 54 °F 63% 30.09 in 6 mi Calm Calm - -   Scattered Clouds
9:00 PM 62.6 °F 53.6 °F 72% 30.09 in 6.2 mi Calm Calm - N/A   Mostly Cloudy
9:30 PM 62.6 °F 53.6 °F 72% 30.09 in 6.2 mi Calm Calm - N/A   Mostly Cloudy
10:00 PM 62.6 °F 53.6 °F 72% 30.09 in 6.2 mi Calm Calm - N/A   Mostly Cloudy
10:30 PM 60.8 °F 53.6 °F 77% 30.09 in 6.2 mi South 3.5 mph - N/A   Mostly Cloudy
11:00 PM 60.8 °F 53.6 °F 77% 30.09 in 6.2 mi SSE 4.6 mph - N/A   Mostly Cloudy
11:30 PM 59.0 °F 53.6 °F 82% 30.09 in 6.2 mi SSE 5.8 mph - N/A   Mostly Cloudy